Location: Alafon
(8.4500°N, 4.2333°E)
Time: 17:12:28
(UTC+00:00)

A-11 Canister half - Pass Details

Date: 12 August 2021
Orbit: 1515 x 1685 km, 47.2° (Epoch: 19 September)

Event Time Altitude Azimuth Distance (km) Brightness Sun altitude
Rises 23:09:04 0° 301° (WNW) 4,928 11.9 -64.9°
Enters shadow 23:11:27 - 295° (WNW) 4,263 11.5 -65.2°
Reaches altitude 10° 23:12:39 10° 292° (WNW) 3,943 - -65.3°
Maximum altitude 23:21:23 34° 232° (SW) 2,527 - -66.0°
Drops below altitude 10° 23:30:05 10° 171° (S) 3,894 - -66.5°
Sets 23:33:39 0° 162° (SSE) 4,860 - -66.6°
